Location: Newark
(34.9500°N, 139.9667°E)
Time: 08:28:33
(UTC+00:00)

Vanguard 2 Rocket - Pass Details

Date: 15 December 2019
Orbit: 554 x 3326 km, 32.9° (Epoch: 17 January)

Event Time Altitude Azimuth Distance (km) Brightness Sun altitude
Rises 11:22:50 0° 279° (W) 5,901 11.8 -46.8°
Reaches altitude 10° 11:27:28 10° 277° (W) 4,435 10.9 -47.8°
Enters shadow 11:34:19 36° 263° (W) 2,238 9.0 -49.2°
Maximum altitude 11:38:10 60° 201° (SSW) 1,422 - -50.0°
Drops below altitude 10° 11:44:11 10° 122° (ESE) 2,563 - -51.2°
Sets 11:46:13 0° 118° (ESE) 3,290 - -51.6°
